Showing default

EXPLORER 36 (GEOS 2), 3093

Orbit data source: Space-Track

EXPLORER 36 (GEOS 2), 3093 is a payload satellite owned by GSFC (US) in LEO that was launched on Thu, 11 Jan 1968 UTC via a THOR DELTA E1 launch vehicle from the Air Force Western Test Range (AFWTR). Payload-class satellites include a variety of spacecraft equipped with specific instruments for various scientific and technological missions. These include communications satellites like Starlink; space stations such as the ISS; scientific satellites like the Hubble; Earth observation satellites from companies like Planet Labs, Umbra, and HawkEye 360; GPS; miniature CubeSats for education and research; and military/defense satellites.

Loading next visibility...
Identifier
3093, 1968-002A
Orbit
LEO
Last TLE update
11 hours ago
Origin
Manufacturer
APL
Mission
Civil Geodetic
Bus & Motor
ANNA, Unknown motor
Mass
212 kg wet, 212 kg dry
Launch date (UTC)
1968-01-11 (57 years ago)
Launch vehicle
THOR DELTA E1
Launch site
Air Force Western Test Range (AFWTR)
Object type
Payload
Rocket body
Debris
Shape & HBR
Oct Cyl + 1 Dome + 1 Ant, 8.9 m
Radar Cross Section
2.095 m², Large (>1 m²)

Expand to show TLE details & history

TLE from 11 hours ago
0 EXPLORER 36 (GEOS 2)
1 03093U 68002A   25191.52701782 -.00000078  00000-0 -38156-5 0  9996
2 03093 105.7855 301.2811 0319373 300.2509  68.2328 12.83586641693527
Epoch: 2025-07-10T12:38Z
TLE epoch observation values (Epoch: 2025-07-10T12:38:54.339Z)
Latitude
11.43736°
Longitude
179.60048°
Altitude
1,244.395 km
Speed
7.273 km/s
True Right ascension
19h 52m 04s
True Declination
11° 22' 30"
Sunlit
Object was in full shadow at epoch
Visualization orbit readout
Latitude
26.18967°
Longitude
175.56975°
Altitude
1,312.42 km
Speed
7.211 km/s
Apparent Right ascension
21h 27m 44s
Apparent Declination
-4° 03' 30"
Sunlit
Object is in full shadow
Visualization observer readout
Local Sidereal Time
12:13:07
Azimuth
57.103° ENE
Elevation
-38.3°
Doppler factor
1
Orbital elements
Apogee altitude
1,570.874 km
Perigee altitude
1,078.849 km
Semi-major axis
7,702.998 km
Eccentricity
0.03194
Inclination
105.7855°
RAAN
301.2811°
Arg. of periapsis
300.2509°
True anomaly
Unknown
Mean anomaly
68.2328°
Eccentric anomaly
Unknown
Mean motion
3.21036 °/min
Orbital period
112.14 mins
BSTAR
-0.0000038156
Loading maneuver chart data...
Loading SW <> Apogee altitude chart data...
Loading historical data...
Loading historical data...
Loading historical data...
Loading historical data...
Loading historical data...
Loading historical data...
Loading historical data...

EXPLORER 36 (GEOS 2) Visibility forecast

Observer location: undefined°, undefined°

Span
Click to sort rows by Start time (UTC) header in descending order
Start Az.
Max El. time (UTC)
Max El. Az.
Max El.
End time (UTC)
End Az.
12 mins2025-07-11 05:34:58.245Z107.95° ESE2025-07-11 05:40:58.245Z47.393° ENE29.348°2025-07-11 05:46:58.245Z355.438° N
13 mins2025-07-11 07:23:58.245Z177.026° S2025-07-11 07:29:58.245Z259.107° W40.575°2025-07-11 07:36:58.245Z328.822° NNW
12 mins2025-07-11 19:10:58.245Z50.272° ENE2025-07-11 19:16:58.245Z99.47° ESE24.957°2025-07-11 19:22:58.245Z149.852° SSE
15 mins2025-07-11 20:59:58.245Z17.347° NNE2025-07-11 21:06:58.245Z300.466° NW43.697°2025-07-11 21:14:58.245Z215.64° SW
10 mins2025-07-11 22:50:58.245Z349.172° N2025-07-11 22:54:58.245Z317.959° NNW19.51°2025-07-11 23:00:58.245Z274.262° WNW
|